| time (UTC) | temp F | wind direction | speed MPH | gust MPH | rain 1hr in | rain 24hr in | rain mn in | humidity % | barometer mb |
| 20260506123100 | 45 | 308 | 1.0 | 5.0 | 0.00 | 1.27 | 0.64 | 96 | 1008.5 |
| 20260506121557 | 45 | 5 | 1.0 | 4.0 | 0.00 | 1.27 | 0.64 | 96 | 1008.3 |
| 20260506120103 | 45 | 41 | 0.0 | 4.0 | 0.00 | 1.27 | 0.64 | 96 | 1008.2 |
| 20260506114553 | 45 | 300 | 1.0 | 4.0 | 0.00 | 1.27 | 0.64 | 96 | 1008.5 |
| 20260506113055 | 45 | 294 | 1.0 | 4.0 | 0.02 | 1.27 | 0.64 | 96 | 1008.0 |
| 20260506111550 | 45 | 42 | 0.0 | 4.0 | 0.03 | 1.27 | 0.64 | 96 | 1007.8 |
| 20260506110101 | 45 | 94 | 1.0 | 5.0 | 0.05 | 1.27 | 0.64 | 96 | 1007.6 |
| 20260506104603 | 45 | 360 | 1.0 | 3.0 | 0.07 | 1.27 | 0.64 | 96 | 1007.3 |
| 20260506103049 | 45 | 0 | 0.0 | 4.0 | 0.08 | 1.25 | 0.62 | 96 | 1006.2 |
| 20260506101552 | 45 | 355 | 1.0 | 4.0 | 0.09 | 1.24 | 0.61 | 95 | 1006.5 |
| 20260506100058 | 45 | 342 | 1.0 | 4.0 | 0.09 | 1.22 | 0.58 | 95 | 1006.7 |
| 20260506094559 | 45 | 0 | 0.0 | 3.0 | 0.09 | 1.20 | 0.57 | 95 | 1007.5 |
| 20260506093050 | 44 | 0 | 0.0 | 4.0 | 0.09 | 1.16 | 0.54 | 95 | 1007.3 |
| 20260506091549 | 44 | 0 | 0.0 | 3.0 | 0.10 | 1.15 | 0.52 | 95 | 1007.4 |
| 20260506090053 | 44 | 304 | 1.0 | 6.0 | 0.10 | 1.13 | 0.50 | 95 | 1007.1 |
| 20260506084618 | 44 | 321 | 1.0 | 5.0 | 0.11 | 1.11 | 0.48 | 95 | 1007.1 |
| 20260506083050 | 44 | 31 | 2.0 | 8.0 | 0.11 | 1.08 | 0.45 | 95 | 1006.8 |
| 20260506081624 | 45 | 19 | 1.0 | 5.0 | 0.11 | 1.04 | 0.42 | 95 | 1006.9 |
| 20260506073058 | 46 | 9 | 3.0 | 9.0 | 0.11 | 0.97 | 0.34 | 95 | 1006.6 |
| 20260506071549 | 47 | 318 | 1.0 | 4.0 | 0.10 | 0.94 | 0.31 | 95 | 1006.3 |
| 20260506061552 | 48 | 330 | 0.0 | 4.0 | 0.10 | 0.84 | 0.21 | 95 | 1006.8 |
| 20260506044546 | 49 | 5 | 1.0 | 3.0 | 0.09 | 0.70 | 0.07 | 95 | 1007.5 |
| 20260506043049 | 49 | 296 | 1.0 | 3.0 | 0.08 | 0.68 | 0.05 | 95 | 1007.6 |
| 20260506041601 | 49 | 65 | 1.0 | 6.0 | 0.08 | 0.66 | 0.03 | 95 | 1007.7 |
| 20260506040050 | 49 | 5 | 1.0 | 4.0 | 0.08 | 0.63 | 0.00 | 95 | 1007.6 |
| 20260506034550 | 49 | 298 | 1.0 | 3.0 | 0.09 | 0.61 | 0.61 | 95 | 1007.8 |
| 20260506033048 | 50 | 308 | 0.0 | 4.0 | 0.13 | 0.60 | 0.60 | 95 | 1007.9 |
| 20260506031548 | 50 | 339 | 1.0 | 3.0 | 0.16 | 0.58 | 0.58 | 95 | 1007.8 |
| 20260506030050 | 50 | 29 | 0.0 | 4.0 | 0.17 | 0.55 | 0.55 | 94 | 1008.3 |
| 20260506024550 | 50 | 34 | 1.0 | 4.0 | 0.17 | 0.52 | 0.52 | 95 | 1008.8 |
| 20260506023100 | 51 | 5 | 1.0 | 4.0 | 0.13 | 0.47 | 0.47 | 94 | 1008.0 |
| 20260506021606 | 51 | 15 | 1.0 | 5.0 | 0.10 | 0.42 | 0.42 | 94 | 1007.7 |
| 20260506020052 | 52 | 330 | 2.0 | 4.0 | 0.06 | 0.38 | 0.38 | 94 | 1007.6 |
| 20260506014553 | 53 | 322 | 0.0 | 4.0 | 0.04 | 0.35 | 0.35 | 94 | 1007.4 |
| 20260506013100 | 54 | 333 | 1.0 | 4.0 | 0.06 | 0.34 | 0.34 | 93 | 1007.4 |
| 20260506011614 | 55 | 330 | 1.0 | 3.0 | 0.05 | 0.32 | 0.32 | 93 | 1007.2 |
| 20260506010056 | 57 | 10 | 1.0 | 3.0 | 0.07 | 0.32 | 0.32 | 94 | 1007.1 |
| 20260506004555 | 57 | 0 | 0.0 | 1.0 | 0.11 | 0.31 | 0.31 | 94 | 1007.2 |
| 20260506003054 | 57 | 0 | 0.0 | 1.0 | 0.17 | 0.28 | 0.28 | 94 | 1007.2 |
| 20260506001557 | 57 | 0 | 0.0 | 2.0 | 0.26 | 0.27 | 0.27 | 94 | 1007.3 |
| 20260506000051 | 57 | 0 | 0.0 | 1.0 | 0.24 | 0.25 | 0.25 | 93 | 1007.3 |
| 20260505234551 | 57 | 67 | 1.0 | 4.0 | 0.18 | 0.19 | 0.19 | 92 | 1007.6 |
| 20260505233058 | 58 | 205 | 1.0 | 6.0 | 0.10 | 0.11 | 0.11 | 91 | 1007.7 |
| 20260505231604 | 59 | 5 | 1.0 | 4.0 | 0.00 | 0.01 | 0.01 | 89 | 1007.7 |
| 20260505230055 | 59 | 0 | 0.0 | 2.0 | 0.00 | 0.01 | 0.01 | 88 | 1006.9 |
| 20260505224545 | 60 | 337 | 0.0 | 3.0 | 0.00 | 0.01 | 0.01 | 88 | 1006.9 |
| 20260505223051 | 60 | 318 | 0.0 | 4.0 | 0.00 | 0.01 | 0.01 | 87 | 1007.0 |
| 20260505221553 | 60 | 87 | 0.0 | 8.0 | 0.00 | 0.01 | 0.01 | 86 | 1006.9 |
| 20260505220054 | 61 | 0 | 1.0 | 5.0 | 0.00 | 0.01 | 0.01 | 86 | 1007.3 |
| 20260505214556 | 62 | 329 | 1.0 | 4.0 | 0.00 | 0.01 | 0.01 | 84 | 1007.2 |
| 20260505213046 | 62 | 0 | 0.0 | 3.0 | 0.00 | 0.01 | 0.01 | 86 | 1007.2 |
| 20260505211549 | 61 | 0 | 0.0 | 3.0 | 0.01 | 0.01 | 0.01 | 87 | 1007.1 |
| 20260505210045 | 61 | 162 | 1.0 | 4.0 | 0.01 | 0.01 | 0.01 | 86 | 1007.1 |
| 20260505204548 | 61 | 121 | 1.0 | 7.0 | 0.01 | 0.01 | 0.01 | 85 | 1007.2 |
| 20260505203107 | 62 | 165 | 1.0 | 9.0 | 0.01 | 0.01 | 0.01 | 82 | 1007.3 |
| 20260505201554 | 65 | 120 | 4.0 | 7.0 | 0.00 | 0.00 | 0.00 | 73 | 1007.3 |
| 20260505200053 | 66 | 185 | 0.0 | 5.0 | 0.00 | 0.00 | 0.00 | 69 | 1007.1 |
| 20260505194636 | 66 | 0 | 1.0 | 4.0 | 0.00 | 0.00 | 0.00 | 69 | 1007.2 |
| 20260505193046 | 66 | 187 | 2.0 | 6.0 | 0.00 | 0.00 | 0.00 | 68 | 1007.2 |
| 20260505191542 | 66 | 111 | 0.0 | 3.0 | 0.00 | 0.00 | 0.00 | 71 | 1007.3 |
| 20260505190046 | 66 | 0 | 1.0 | 4.0 | 0.00 | 0.00 | 0.00 | 69 | 1007.7 |
| 20260505184549 | 66 | 65 | 0.0 | 7.0 | 0.00 | 0.00 | 0.00 | 70 | 1007.9 |
| 20260505183049 | 66 | 117 | 3.0 | 11.0 | 0.00 | 0.00 | 0.00 | 66 | 1008.1 |
| 20260505181550 | 67 | 144 | 5.0 | 12.0 | 0.00 | 0.00 | 0.00 | 65 | 1008.0 |
| 20260505180052 | 67 | 216 | 3.0 | 9.0 | 0.00 | 0.00 | 0.00 | 65 | 1007.8 |
| 20260505174547 | 67 | 78 | 3.0 | 11.0 | 0.00 | 0.00 | 0.00 | 66 | 1007.6 |
| 20260505173055 | 67 | 157 | 2.0 | 9.0 | 0.00 | 0.00 | 0.00 | 65 | 1007.5 |
| 20260505171548 | 68 | 147 | 4.0 | 14.0 | 0.00 | 0.00 | 0.00 | 63 | 1007.4 |
| 20260505170104 | 68 | 108 | 1.0 | 10.0 | 0.00 | 0.00 | 0.00 | 65 | 1007.3 |
| 20260505164550 | 67 | 180 | 5.0 | 12.0 | 0.00 | 0.00 | 0.00 | 64 | 1007.6 |
| 20260505163051 | 68 | 188 | 4.0 | 13.0 | 0.00 | 0.00 | 0.00 | 63 | 1007.6 |
| 20260505161610 | 69 | 216 | 2.0 | 8.0 | 0.00 | 0.00 | 0.00 | 64 | 1007.5 |
| 20260505153100 | 67 | 168 | 3.0 | 10.0 | 0.00 | 0.00 | 0.00 | 65 | 1007.0 |
| 20260505151558 | 67 | 92 | 2.0 | 9.0 | 0.00 | 0.00 | 0.00 | 68 | 1007.0 |
| 20260505124550 | 61 | 211 | 2.0 | 6.0 | 0.00 | 0.00 | 0.00 | 74 | 1006.3 |